Вернуться в каталог

COSMOS 2499 DEB

LostPO
NORAD 49934·DEBRIS·🇷🇺 Russia

Запущен May 23, 2014 с Plesetsk Cosmodrome

Loading…

Ближайшие Пролёты (ближайшие 24 часа)

TLE

УстаревшееSource: Space-Track

Эпоха: Jun 26, 2023, 23:14 UTC

1 49934U 14028R   23177.96811375  .00000739  00000-0  22098-2 0  9996
2 49934  82.5076 259.4437 0233700 349.1217  10.4887 12.97571055 65983

Отслеживайте COSMOS 2499 DEB в реальном времени с AllMySat

Download on the App Store